User: anonymous   Login
Location: Unspecified
(0.0000°N, 0.0000°E)
Time: 18:45:15
(UTC+00:00)
Language:

SRMSAT - Orbit

View from above orbital plane
View from above orbital plane
View from above satellite
View from above satellite

Ground track
Ground track

The orbit data is extracted from the following two-line orbital elements,

1 37841U 11058D   17145.50019348  .00000322  00000-0  31731-4 0  9992
2 37841 019.9721 269.2594 0011745 191.8520 235.9847 14.10574858289982
Epoch (UTC): 25 May 2017 12:00:16
Eccentricity: 0.0011745
inclination: 19.9721°
perigee height: 849 km
apogee height: 866 km
right ascension of ascending node: 269.2594°
argument of perigee: 191.8520°
revolutions per day: 14.10574858
mean anomaly at epoch: 235.9847°
orbit number at epoch: 28998

The dashed part of the orbit path shows where the satellite is in the earth's shadow,  

DLR